Regional Weather Roundup
Issued by NWS

Home | Current Version | Previous Version | Graphics & Text | Print | Product List | Glossary On
Versions: 1 2 3 4 5 6 7 8 9 10 11 12 13 14 15 16 17 18 19 20 21 22 23 24 25 26 27
000
ASUS45 KSLC 231510
RWRUT

UTAH REGIONAL WEATHER ROUNDUP
NATIONAL WEATHER SERVICE SALT LAKE CITY UT
800 AM MST FRI FEB 23 2018

UTZ001>011-023>025-231600-

NORTHERN UTAH

CITY           SKY/WX    TMP DP  RH WIND       PRES   REMARKS
BRIGHAM CITY   CLOUDY    25  18  74 SW5       29.97R WCI  19
HILL AFB       LGT SNOW  22  18  85 E12       29.92R FOG     WCI  10
LOGAN          LGT SNOW  22  17  81 SW3       29.99R VSB 1
OGDEN          LGT SNOW  24  22  91 N10       29.93R FOG     WCI  14
SALT LAKE CITY LGT SNOW  29  25  85 NW13      29.93R VSB 1   WCI  19
TOOELE VALLEY  SNOW      27  25  93 NW25G33   29.95R VSB 1/2 WCI  11
WENDOVER       PTCLDY    20  10  65 NW13      30.02R WCI   7
HEBER CITY       N/A     19  18  93 CALM      29.86S
WEST JORDAN    CLOUDY    25  25 100 NW7       29.93R WCI  17

$$

UTZ011>015-024>027-231600-

CENTRAL/NORTHEAST UTAH

CITY           SKY/WX    TMP DP  RH WIND       PRES   REMARKS
PROVO AIRPORT  CLOUDY    27  25  92 CALM      29.93R
MOAB/CANYONLAN HVY SNOW  28  28 100 S13G18    29.93R VSB 1/4 WCI  17
DELTA          CLOUDY    23  21  93 NW8       29.95R WCI  14
PRICE          SNOW      23  23 100 E6        29.86R VSB 1/2 WCI  16
RICHFIELD      CLOUDY    25  25 100 SW5       29.92R FOG     WCI  19
VERNAL         LGT SNOW  26  21  81 N6        29.93S VSB 3/4 WCI  19

$$

UTZ013>016-019>022-027-231600-

SOUTHERN UTAH

CITY           SKY/WX    TMP DP  RH WIND       PRES   REMARKS
BRYCE CANYON   MOCLDY     3   0  87 CALM      29.87R
CEDAR CITY     CLOUDY    19  16  88 W3        29.92R
MILFORD        CLOUDY    24  22  91 NE3       29.95R
ST GEORGE      CLOUDY    31  30  96 VRB3      30.02R
HANKSVILLE     CLOUDY    28  27  93 CALM      29.94R
KANAB          CLEAR     16  14  93 NE3       30.02R
BLANDING         N/A     27  15  59 SW7       30.04R WCI  20

$$

REGIONAL REPORTS     COLORADO/ARIZONA

CITY           SKY/WX    TMP DP  RH WIND       PRES   REMARKS
CRAIG, CO      MOSUNNY   19  12  74 E9        29.94S WCI   8
GRAND JUNCTION CLOUDY    29  23  78 SE12      29.94S WCI  19
RIFLE, CO      CLOUDY    15  14  95 SE7       29.97S WCI   5
MONTROSE, CO   MOSUNNY   25  14  63 SE10      29.99S WCI  15
CORTEZ, CO     CLOUDY    28  11  48 S13       30.01R WCI  17
COLORADO CITY    N/A     19  16  86 CALM      29.99S
PAGE, AZ       CLOUDY    30  28  92 S8        29.96F WCI  22
GRAND CANYON   LGT SNOW  21  20  96 W8        29.94R FOG     WCI  11
KINGMAN, AZ    CLOUDY    38  21  50 S16G22    30.02R WCI  29
FLAGSTAFF, AZ  LGT SNOW  23  19  85 SW16      29.94S VSB 1   WCI  10

$$

REGIONAL REPORTS    NEVADA/IDAHO/WYOMING

CITY           SKY/WX    TMP DP  RH WIND       PRES   REMARKS
LAS VEGAS, NV  PTCLDY    41  22  46 SW12      30.00R
ELY, NY        LGT SNOW  12   9  87 S6        29.94R WCI   3
ELKO, NV       CLOUDY    17  15  92 SW5       30.03R WCI  10
POCATELLO, ID  LGT SNOW  16  13  88 SW14      30.09R FOG     WCI   2
BURLEY, ID     MIX PCPN  16  12  84 W9G22     30.11R WCI   4
EVANSTON, WY   CLOUDY     7   3  84 E12       29.87R WCI  -8
ROCK SPRINGS,  MOCLDY     7   2  80 E6        29.91R WCI  -3

$$




USA.gov is the U.S. government's official web portal to all federal, state and local government web resources and services.